Location: Montreal
(45.5000°N, 73.5833°W)
Time: 06:14:53
(UTC-04:00)

Tiangong 2 - Pass Details

Date: 11 October 2017
Orbit: 388 x 391 km, 42.8° (Epoch: 21 October)

Event Time Altitude Azimuth Distance (km) Brightness Sun altitude
Exits shadow 06:11:09 13° 241° (WSW) 1,260 3.1 -10.3°
Maximum altitude 06:13:48 44° 170° (S) 555 1.9 -9.9°
Drops below altitude 10° 06:16:52 10° 97° (E) 1,423 5.6 -9.3°
Sets 06:19:00 0° 90° (E) 2,280 7.5 -9.0°
